[[{"header":{"parameterUnit":"m.s-1","parameterCategory":2,"la1":30.2991,"la2":30.254,"lo1":-89.0895,"lo2":-89.0444,"dy":0.0017,"dx":0.0017,"nx":28,"ny":28,"refTime":"2024-02-07T03:00:00:Z","depth":"0","parameterNumber":2,"parameterNumberName":"U-component_of_CURRENTS"},"data":[0,0,0,0,0,0,0,0,0,0,0,0,0,0,0,0,0,0,0,0,0,0,0,0,0,0,0,0,0,0,0,0,0,0,0,0,0,0,0,0,0,0,0,0,0,0,0,0,0,0,0,0,0,0,0,0,0,0,0.3281,0.3281,0,0.3275,0.3274,0.3274,0.3241,0.3241,0.324,0.324,0.3201,0.32,0.32,0,0,0,0,0,0,0,0,0,0,0,0,0,0.3297,0.3297,0.3281,0.3281,0.3281,0.3275,0.3274,0.3274,0.3241,0.3241,0.324,0.3239,0.3201,0.3201,0.32,0,0,0,0,0,0,0,0,0,0,0,0,0,0.3288,0.3296,0.3281,0.3266,0.3265,0.3275,0.3274,0.3274,0.3242,0.3241,0.324,0.3239,0.3201,0.3201,0.32,0.3211,0,0,0.3197,0.3197,0,0,0,0,0,0,0,0,0.3288,0.3287,0.3268,0.3267,0.3266,0.326,0.3266,0.3252,0.3242,0.3248,0.324,0.3239,0.322,0.3218,0.3215,0.3209,0.3207,0.3197,0.3197,0.3196,0.3196,0,0,0,0,0,0,0,0.3289,0.3287,0.3276,0.3269,0.3267,0.3271,0.3268,0.3263,0.3236,0.3247,0.3245,0.3249,0.3219,0.3216,0.3214,0.3207,0.3197,0.3197,0.3196,0.3196,0.3236,0.3238,0,0,0,0,0,0,0.3294,0.3288,0.3276,0.3276,0.3279,0.3272,0.3268,0.3261,0.3236,0.3233,0.325,0.3248,0.3218,0.3215,0.3212,0.3245,0.3196,0.3196,0.3195,0.3235,0.3237,0.3238,0,0,0,0,0,0,0.3295,0.3293,0.3276,0.3285,0.3283,0.3272,0.3264,0.3261,0.3262,0.324,0.3235,0.3254,0.3217,0.3213,0.3218,0.3242,0.3195,0.3195,0.3233,0.3235,0.3237,0.3296,0,0,0,0,0,0,0.3295,0.3293,0.3293,0.3284,0.3283,0.3286,0.3265,0.3262,0.3267,0.3264,0.3242,0.3237,0.3216,0.322,0.3217,0.324,0.3194,0.3231,0.3234,0.3237,0.3292,0.33,0.3307,0,0,0,0,0,0.3295,0.3295,0.3293,0.3292,0.3282,0.3287,0.3287,0.3275,0.3268,0.3272,0.3262,0.3238,0.3237,0.322,0.3217,0.324,0.3229,0.3233,0.3236,0.3289,0.3298,0.3306,0,0,0,0,0,0,0.3302,0.3292,0.3289,0.3286,0.3291,0.3283,0.3287,0.3284,0.328,0.3277,0.3253,0.3249,0.3265,0.3248,0.323,0.3263,0.3231,0.3234,0.3272,0.3281,0.3288,0.3303,0.3193,0,0,0,0,0,0.3306,0.3301,0.33,0.3299,0.3303,0.3299,0.3302,0.3297,0.3293,0.329,0.3277,0.3271,0.3278,0.3275,0.3273,0.3286,0.3293,0.3302,0.331,0.3316,0.3328,0.3368,0.338,0.325,0.325,0.325,0,0,0.3306,0.3304,0.33,0.3301,0.3302,0.3314,0.3298,0.3306,0.3322,0.3288,0.3301,0.3296,0.329,0.3307,0.3313,0.3293,0.3357,0.332,0.3326,0.3334,0.3373,0.3385,0.3397,0.3252,0.3252,0.3251,0,0,0.3312,0.3307,0.3308,0.3317,0.3327,0.3329,0.3336,0.3336,0.3341,0.3355,0.3345,0.3359,0.3351,0.3361,0.3363,0.3414,0.3399,0.3411,0.3453,0.3492,0.3503,0.3513,0.3539,0.355,0.3409,0.341,0.341,0,0.3317,0.3317,0.3312,0.3324,0.3337,0.334,0.3356,0.3368,0.3371,0.3384,0.3365,0.3392,0.3382,0.3424,0.3441,0.3431,0.3445,0.3417,0.3502,0.3512,0.3521,0.3545,0.3557,0.3413,0.3412,0.3412,0.3412,0,0.3324,0.3333,0.3338,0.3353,0.3366,0.3383,0.3401,0.3417,0.3424,0.3434,0.3472,0.3469,0.3484,0.3488,0.3478,0.3542,0.3529,0.351,0.3478,0.3537,0.3559,0.357,0.3417,0.3416,0.3415,0.3415,0,0,0.3306,0.3338,0.3338,0.3345,0.3386,0.3383,0.3435,0.3469,0.3497,0.351,0.355,0.3574,0.3574,0.358,0.3577,0.3609,0.3683,0.3589,0.3589,0.3613,0.3766,0.3718,0.3726,0.3678,0.3681,0.3683,0.3755,0,0.3315,0.3332,0.3359,0.3378,0.3386,0.3423,0.3463,0.3496,0.3531,0.357,0.3597,0.3628,0.3611,0.3621,0.3658,0.3682,0.3716,0.3665,0.3707,0.3708,0.3658,0.3739,0.3584,0.3633,0.3766,0.3768,0.377,0,0.3304,0.3318,0.3342,0.3377,0.3385,0.3405,0.3462,0.3504,0.3581,0.361,0.3664,0.3685,0.3752,0.3718,0.3801,0.377,0.3778,0.3788,0.379,0.3735,0.3683,0.3596,0.3649,0.3532,0.3787,0.3786,0.3784,0,0.3254,0.3296,0.331,0.3324,0.3375,0.3396,0.3431,0.3506,0.3566,0.3644,0.3699,0.376,0.3812,0.384,0.3876,0.3843,0.3961,0.3911,0.3876,0.3872,0.3744,0.3724,0.3685,0.3969,0.3969,0.3969,0.3968,0,0.3239,0.324,0.328,0.3282,0.3313,0.3351,0.3412,0.3463,0.3568,0.3627,0.3714,0.3778,0.3849,0.3923,0.3919,0.3951,0.3999,0.3909,0.39,0.3759,0.3741,0.3634,0.3578,0.3971,0.3971,0.397,0.397,0,0.3177,0.3209,0.3224,0.3271,0.329,0.3305,0.3416,0.3448,0.3564,0.3654,0.3687,0.3834,0.3914,0.3982,0.4044,0.4016,0.3916,0.4025,0.3854,0.3823,0.3644,0.3597,0.348,0.3375,0.3987,0.3986,0.3986,0,0.3148,0.3147,0.3203,0.3211,0.3235,0.3281,0.331,0.343,0.348,0.3662,0.3688,0.3839,0.3914,0.4033,0.4013,0.4028,0.3893,0.3869,0.3773,0.3638,0.3579,0.3464,0.3376,0.3626,0.3622,0.362,0.3617,0,0.3098,0.312,0.3134,0.3158,0.3177,0.3221,0.3272,0.3326,0.3445,0.3533,0.365,0.3746,0.3895,0.3859,0.3907,0.3884,0.3669,0.3811,0.3715,0.3341,0.317,0.3061,0.3574,0.3593,0.3595,0.3597,0.3598,0.3599,0.3058,0.3058,0.3074,0.3081,0.3105,0.3114,0.3102,0.3168,0.3239,0.3311,0.3492,0.3556,0.3644,0.3706,0.3668,0.3509,0.3517,0.3358,0.333,0.324,0.3078,0.3541,0.3521,0.3523,0.3525,0.3526,0.3527,0,0.2981,0.2979,0.2986,0.2976,0.2936,0.2997,0.3021,0.2978,0.297,0.3109,0.3193,0.325,0.3228,0.3269,0.3198,0.3051,0.2923,0.2932,0.2721,0.267,0.312,0.3042,0.2863,0.2863,0.2863,0.2863,0.2863,0.2863,0.2941,0.2901,0.2891,0.2795,0.2776,0.2686,0.2663,0.2636,0.2694,0.2699,0.2725,0.2827,0.297,0.2923,0.2767,0.2687,0.2464,0.2342,0.2347,0.2648,0.2684,0.2719,0.2632,0.2371,0.237,0.1785,0.1781,0.1777]},{"header":{"parameterUnit":"m.s-1","parameterCategory":2,"la1":30.2991,"la2":30.254,"lo1":-89.0895,"lo2":-89.0444,"dy":0.0017,"dx":0.0017,"nx":28,"ny":28,"refTime":"2024-02-07T03:00:00:Z","depth":"0","parameterNumber":3,"parameterNumberName":"V-component_of_CURRENTS"},"data":[0,0,0,0,0,0,0,0,0,0,0,0,0,0,0,0,0,0,0,0,0,0,0,0,0,0,0,0,0,0,0,0,0,0,0,0,0,0,0,0,0,0,0,0,0,0,0,0,0,0,0,0,0,0,0,0,0,0,0.0112,0.0111,0,0.007,0.0069,0.0068,0.0034,0.0034,0.0034,0.0034,-0.0022,-0.0024,-0.0025,0,0,0,0,0,0,0,0,0,0,0,0,0,0.0099,0.0099,0.0112,0.0111,0.0111,0.007,0.0069,0.0068,0.0034,0.0034,0.0034,0.0034,-0.0022,-0.0023,-0.0025,0,0,0,0,0,0,0,0,0,0,0,0,0,0.0084,0.01,0.0112,0.009,0.0088,0.007,0.0069,0.0068,0.0034,0.0034,0.0034,0.0033,-0.0021,-0.0023,-0.0025,-0.0031,0,0,-0.0031,-0.0032,0,0,0,0,0,0,0,0,0.0085,0.0084,0.0094,0.0092,0.0089,0.0058,0.0044,0.0035,0.0034,0.0053,0.0034,0.0033,0.0005,0.0001,-0.0009,-0.0034,-0.0036,-0.0031,-0.0033,-0.0033,-0.0034,0,0,0,0,0,0,0,0.0086,0.0085,0.0093,0.0094,0.0091,0.0061,0.0059,0.0042,0.0029,0.0051,0.0049,0.0047,0.0003,-0.0007,-0.001,-0.0037,-0.0031,-0.0033,-0.0034,-0.0035,-0.0066,-0.0066,0,0,0,0,0,0,0.0099,0.0087,0.0095,0.0092,0.0088,0.0062,0.006,0.0067,0.003,0.0024,0.0048,0.0046,-0.0003,-0.0008,-0.0013,-0.0004,-0.0033,-0.0035,-0.0036,-0.0067,-0.0066,-0.0066,0,0,0,0,0,0,0.0099,0.01,0.0096,0.0089,0.0087,0.0063,0.0072,0.0067,0.006,0.0028,0.0021,0.0047,-0.0004,-0.001,-0.0022,-0.0007,-0.0036,-0.0038,-0.0067,-0.0066,-0.0066,0.0001,0,0,0,0,0,0,0.0099,0.0101,0.0108,0.0091,0.0088,0.0095,0.0072,0.0066,0.006,0.0057,0.0025,0.0019,-0.0005,-0.0018,-0.0023,-0.0011,-0.004,-0.0067,-0.0067,-0.0066,-0.0002,0.0004,0.0008,0,0,0,0,0,0.0098,0.0116,0.0109,0.0109,0.01,0.0096,0.0092,0.0072,0.0061,0.0064,0.004,0.002,-0.0018,-0.0019,-0.0026,-0.0013,-0.0068,-0.0067,-0.0066,-0.0004,0.0003,0.0008,0,0,0,0,0,0,0.0111,0.0114,0.0105,0.0122,0.0113,0.0091,0.0092,0.0078,0.0062,0.0058,0.0025,0.0019,0.0012,-0.001,-0.0011,-0.0021,-0.0047,-0.0047,0.0003,0.0009,0.0014,0.0036,-0.0041,0,0,0,0,0,0.0119,0.0134,0.0125,0.0136,0.0135,0.0114,0.0109,0.0097,0.0081,0.0073,0.005,0.0026,0.001,0.0002,-0.0019,-0.0021,-0.0046,-0.0019,-0.0013,-0.0009,0.0004,-0.0025,-0.0021,-0.0063,-0.0063,-0.0063,0,0,0.0124,0.0128,0.0135,0.0139,0.0129,0.0141,0.011,0.0109,0.012,0.007,0.0074,0.0042,0.0012,0.0008,0.0003,-0.0008,-0.0011,-0.0008,-0.0004,0.0007,-0.0024,-0.002,-0.0016,-0.0063,-0.0063,-0.0063,0,0,0.0149,0.0149,0.0172,0.0173,0.0169,0.016,0.0164,0.0148,0.0143,0.0139,0.0107,0.0087,0.006,0.0044,0.0032,0.0052,0.0015,0.0042,0.0089,0.0061,0.0064,0.0067,0.0041,0.0041,0.0047,0.0048,0.0048,0,0.0154,0.0188,0.0175,0.0198,0.0207,0.0175,0.0201,0.0192,0.0174,0.0178,0.015,0.0112,0.0081,0.0084,0.0087,0.0066,0.0042,0.0071,0.0069,0.0071,0.0072,0.0045,0.0044,0.0051,0.0051,0.005,0.005,0,0.0201,0.0225,0.0238,0.0262,0.0266,0.0283,0.0274,0.028,0.0263,0.0247,0.0239,0.0189,0.0169,0.0152,0.0125,0.0126,0.0103,0.0077,0.0057,0.0081,0.005,0.0048,0.0056,0.0054,0.0053,0.0053,0,0,0.0226,0.0265,0.0273,0.0299,0.0306,0.0319,0.0343,0.0357,0.0384,0.034,0.0363,0.0311,0.0273,0.0257,0.0215,0.0187,0.017,0.0143,0.0139,0.0124,0.0109,0.0094,0.009,0.0141,0.0141,0.0141,0.0083,0,0.0269,0.0337,0.0339,0.0395,0.043,0.0418,0.0448,0.0452,0.0444,0.0455,0.0396,0.0388,0.0317,0.0307,0.0269,0.0201,0.0167,0.0188,0.0082,0.0079,0.0069,0.0088,0.0126,0.0078,0.0081,0.008,0.008,0,0.0323,0.0365,0.0433,0.0485,0.0498,0.052,0.057,0.0594,0.0595,0.0587,0.0558,0.0504,0.0461,0.0392,0.0285,0.0301,0.0214,0.0149,0.0145,0.011,0.0061,0.0053,0.0073,-0.0072,0.0076,0.0076,0.0077,0,0.0371,0.0433,0.0495,0.0511,0.0558,0.0587,0.0613,0.0633,0.0681,0.0669,0.0693,0.0609,0.0591,0.0466,0.0322,0.0304,0.0202,0.0157,0.006,0.0058,0.0059,0.0057,-0.0065,0.0078,0.0078,0.0078,0.0078,0,0.0429,0.0478,0.0523,0.0558,0.0642,0.0645,0.073,0.0746,0.0786,0.0848,0.0763,0.0796,0.0608,0.0522,0.0367,0.0218,0.0231,0.0078,0.0046,0.0083,0.0084,-0.0068,-0.0148,0.0076,0.0077,0.0077,0.0077,0,0.0475,0.0503,0.058,0.064,0.0669,0.0729,0.0824,0.0888,0.0909,0.0991,0.0991,0.0945,0.0835,0.064,0.0449,0.0298,0.0061,0.0074,0.0131,0.0106,-0.0123,-0.0199,-0.0357,-0.0404,-0.0038,-0.0039,-0.0039,0,0.0505,0.0551,0.0646,0.0704,0.0734,0.0826,0.09,0.0951,0.1029,0.1091,0.1143,0.1067,0.105,0.0774,0.0483,0.0214,0.0058,0.0053,0.0017,-0.0122,-0.0231,-0.0298,-0.033,0.0042,0.0042,0.0042,0.0042,0,0.0565,0.0596,0.066,0.0783,0.0866,0.098,0.1084,0.1171,0.1234,0.1316,0.1404,0.1397,0.114,0.0904,0.052,0.0322,-0.003,0.0047,-0.011,-0.0184,-0.025,-0.0314,0.006,0.0044,0.0043,0.0043,0.0043,0.0043,0.0608,0.0666,0.0753,0.0869,0.0976,0.1117,0.1221,0.1344,0.1496,0.162,0.1601,0.1639,0.1252,0.0761,0.049,-0.0011,-0.0027,-0.0167,-0.0249,-0.0306,-0.0347,0.0031,-0.0017,-0.0017,-0.0017,-0.0018,-0.0018,0,0.0664,0.0732,0.0837,0.0976,0.1098,0.1147,0.1335,0.1451,0.1642,0.1763,0.1847,0.1685,0.1256,0.0775,0.0106,-0.0236,-0.036,-0.0441,-0.0527,-0.0546,-0.0217,-0.0209,-0.0283,-0.0283,-0.0283,-0.0283,-0.0283,-0.0283,0.0696,0.0798,0.0852,0.1051,0.1153,0.1325,0.1438,0.1622,0.1765,0.1934,0.1972,0.1958,0.1546,0.0394,-0.038,-0.0549,-0.0759,-0.0832,-0.0954,-0.0736,-0.0716,-0.0698,-0.071,-0.0889,-0.0889,-0.1221,-0.1224,-0.1227]}],[{"header":{"parameterUnit":"m.s-1","parameterCategory":2,"la1":30.2991,"la2":30.254,"lo1":-89.0895,"lo2":-89.0444,"dy":0.0017,"dx":0.0017,"nx":28,"ny":28,"refTime":"2024-02-07T03:00:00:Z","depth":"2","parameterNumber":2,"parameterNumberName":"U-component_of_CURRENTS"},"data":[0,0,0,0,0,0,0,0,0,0,0,0,0,0,0,0,0,0,0,0,0,0,0,0,0,0,0,0,0,0,0,0,0,0,0,0,0,0,0,0,0,0,0,0,0,0,0,0,0,0,0,0,0,0,0,0,0,0,0.284,0.2841,0,0.2847,0.2846,0.2846,0.2832,0.2832,0.2832,0.2832,0.2818,0.2818,0.2818,0,0,0,0,0,0,0,0,0,0,0,0,0,0.2832,0.2832,0.284,0.2841,0.2841,0.2847,0.2846,0.2846,0.2832,0.2832,0.2832,0.2831,0.2818,0.2818,0.2818,0,0,0,0,0,0,0,0,0,0,0,0,0,0.2834,0.2832,0.284,0.2837,0.2836,0.2847,0.2846,0.2846,0.2832,0.2832,0.2832,0.2831,0.2818,0.2818,0.2818,0.2823,0,0,0.2817,0.2817,0,0,0,0,0,0,0,0,0.2834,0.2834,0.2837,0.2837,0.2837,0.284,0.2839,0.2838,0.2832,0.2831,0.2832,0.2831,0.2826,0.2825,0.2824,0.2823,0.2822,0.2817,0.2817,0.2817,0.2817,0,0,0,0,0,0,0,0.2834,0.2834,0.284,0.2837,0.2837,0.284,0.284,0.2839,0.2828,0.2831,0.2831,0.2836,0.2825,0.2824,0.2823,0.2822,0.2817,0.2817,0.2817,0.2817,0.2873,0.2874,0,0,0,0,0,0,0.2838,0.2834,0.284,0.2841,0.2838,0.2841,0.284,0.2838,0.2828,0.2828,0.2836,0.2835,0.2824,0.2823,0.2823,0.2867,0.2817,0.2817,0.2817,0.2871,0.2873,0.2875,0,0,0,0,0,0,0.2838,0.2838,0.284,0.284,0.2841,0.2841,0.2839,0.2838,0.2847,0.2833,0.2831,0.2848,0.2824,0.2823,0.2837,0.2865,0.2817,0.2816,0.2869,0.2872,0.2874,0.2932,0,0,0,0,0,0,0.2837,0.2838,0.2844,0.284,0.2841,0.2854,0.2839,0.2838,0.2851,0.285,0.2842,0.284,0.2824,0.2838,0.2837,0.2864,0.2816,0.2867,0.287,0.2873,0.2928,0.2936,0.2942,0,0,0,0,0,0.2837,0.2841,0.2844,0.2845,0.2846,0.2855,0.2856,0.2853,0.2852,0.286,0.286,0.284,0.2857,0.2839,0.2838,0.2865,0.2866,0.287,0.2873,0.2924,0.2934,0.2942,0,0,0,0,0,0,0.284,0.2841,0.2843,0.2848,0.2857,0.2853,0.2862,0.2864,0.287,0.2872,0.2856,0.2854,0.2881,0.2867,0.2848,0.2892,0.2861,0.2864,0.29,0.2909,0.2916,0.2926,0.2816,0,0,0,0,0,0.2845,0.2849,0.2853,0.286,0.2866,0.2869,0.2875,0.2876,0.2879,0.2882,0.2878,0.2881,0.2894,0.2896,0.2901,0.292,0.2924,0.294,0.2947,0.2953,0.2962,0.3,0.3011,0.2887,0.2887,0.2887,0,0,0.2846,0.2851,0.2852,0.2862,0.2867,0.2881,0.2871,0.2886,0.2905,0.288,0.2904,0.2907,0.2907,0.2932,0.2942,0.2923,0.2992,0.2958,0.2963,0.2969,0.3005,0.3017,0.3028,0.2889,0.2889,0.2889,0,0,0.2852,0.2858,0.2864,0.2877,0.2894,0.2899,0.2909,0.2917,0.2929,0.2951,0.2948,0.297,0.2975,0.2987,0.2993,0.3046,0.3033,0.3049,0.3089,0.3126,0.3136,0.3146,0.3167,0.3177,0.3049,0.3049,0.3049,0,0.2858,0.2866,0.287,0.2885,0.29,0.2911,0.2928,0.2945,0.296,0.2977,0.2966,0.3008,0.3005,0.305,0.307,0.3063,0.3077,0.3052,0.3136,0.3145,0.3153,0.3173,0.3184,0.3052,0.3052,0.3051,0.3051,0,0.2868,0.2883,0.2891,0.2914,0.293,0.2949,0.2973,0.2996,0.3012,0.3027,0.3076,0.3081,0.3106,0.3114,0.3106,0.3171,0.3159,0.3143,0.3111,0.3169,0.3186,0.3196,0.3057,0.3055,0.3054,0.3054,0,0,0.285,0.2892,0.2893,0.2903,0.295,0.295,0.3005,0.3044,0.3077,0.3102,0.3148,0.3181,0.319,0.3199,0.3202,0.3233,0.3303,0.3218,0.3218,0.3235,0.3381,0.3316,0.332,0.3304,0.3306,0.3308,0.3369,0,0.2859,0.2882,0.2912,0.2936,0.2946,0.2989,0.3032,0.3071,0.3113,0.316,0.3194,0.3235,0.3223,0.3243,0.3278,0.3303,0.3334,0.3287,0.3325,0.3326,0.3258,0.3332,0.3054,0.3081,0.3378,0.338,0.3381,0,0.2851,0.2868,0.2896,0.2936,0.2946,0.2972,0.3035,0.3081,0.3165,0.3201,0.3261,0.329,0.3359,0.3331,0.3411,0.3384,0.3392,0.3401,0.3403,0.3329,0.3281,0.3072,0.3088,0.3398,0.3397,0.3396,0.3395,0,0.2801,0.2847,0.2866,0.2881,0.2939,0.2966,0.3005,0.3088,0.3149,0.3238,0.3294,0.336,0.3416,0.3445,0.3479,0.3453,0.3555,0.3514,0.3461,0.3455,0.322,0.319,0.3566,0.3566,0.3566,0.3566,0.3565,0,0.2783,0.279,0.284,0.2845,0.2882,0.2927,0.2995,0.305,0.3159,0.3221,0.3313,0.3376,0.3453,0.3519,0.3516,0.3534,0.3589,0.3487,0.3477,0.3232,0.3204,0.3474,0.3463,0.3568,0.3567,0.3567,0.3566,0,0.2723,0.276,0.278,0.2836,0.286,0.2882,0.3,0.3036,0.3156,0.3249,0.3286,0.3427,0.3501,0.3565,0.3622,0.3588,0.3597,0.3582,0.3288,0.3243,0.3458,0.3449,0.3524,0.3523,0.3522,0.352,0.3519,0,0.2694,0.2697,0.2762,0.2775,0.2805,0.2862,0.2897,0.3021,0.3074,0.3255,0.328,0.3423,0.3481,0.3574,0.3535,0.3534,0.359,0.3263,0.3159,0.3477,0.3459,0.3452,0.3445,0.2866,0.286,0.2855,0.2851,0,0.2642,0.2671,0.2688,0.2722,0.2751,0.2796,0.2858,0.291,0.3037,0.312,0.3222,0.3299,0.3409,0.3288,0.3315,0.3269,0.3241,0.316,0.3578,0.2927,0.2863,0.2844,0.2857,0.2806,0.281,0.2814,0.2816,0.2818,0.2604,0.2604,0.263,0.2647,0.268,0.2689,0.2683,0.2748,0.2814,0.288,0.304,0.3046,0.3084,0.2989,0.2892,0.2819,0.304,0.287,0.2882,0.2901,0.2822,0.2759,0.2667,0.267,0.2674,0.2676,0.2679,0,0.2528,0.2531,0.2544,0.2545,0.2517,0.2582,0.2609,0.2565,0.2554,0.2654,0.2713,0.2518,0.2453,0.2492,0.2314,0.2317,0.2272,0.2209,0.2104,0.2153,0.2195,0.2075,0.1725,0.1722,0.1718,0.1716,0,0,0.2489,0.2455,0.2449,0.237,0.2366,0.2291,0.2273,0.2231,0.2258,0.2217,0.2194,0.2368,0.2445,0.205,0.1997,0.1823,0.1976,0.1761,0.2533,0.2461,0.2499,0.2593,0.2467,0,0,0,0,0]},{"header":{"parameterUnit":"m.s-1","parameterCategory":2,"la1":30.2991,"la2":30.254,"lo1":-89.0895,"lo2":-89.0444,"dy":0.0017,"dx":0.0017,"nx":28,"ny":28,"refTime":"2024-02-07T03:00:00:Z","depth":"2","parameterNumber":3,"parameterNumberName":"V-component_of_CURRENTS"},"data":[0,0,0,0,0,0,0,0,0,0,0,0,0,0,0,0,0,0,0,0,0,0,0,0,0,0,0,0,0,0,0,0,0,0,0,0,0,0,0,0,0,0,0,0,0,0,0,0,0,0,0,0,0,0,0,0,0,0,0.0247,0.0247,0,0.021,0.021,0.0209,0.0182,0.0181,0.0181,0.0181,0.0136,0.0135,0.0133,0,0,0,0,0,0,0,0,0,0,0,0,0,0.0237,0.0237,0.0247,0.0247,0.0246,0.021,0.021,0.0209,0.0182,0.0181,0.0181,0.0181,0.0136,0.0135,0.0133,0,0,0,0,0,0,0,0,0,0,0,0,0,0.0224,0.0238,0.0247,0.0229,0.0227,0.021,0.021,0.0209,0.0182,0.0181,0.0181,0.0181,0.0136,0.0135,0.0133,0.0129,0,0,0.0128,0.0128,0,0,0,0,0,0,0,0,0.0225,0.0225,0.0232,0.023,0.0228,0.0201,0.0189,0.0182,0.0182,0.0198,0.0181,0.0181,0.0157,0.0154,0.0147,0.0127,0.0125,0.0128,0.0127,0.0127,0.0126,0,0,0,0,0,0,0,0.0226,0.0226,0.0232,0.0231,0.0229,0.0203,0.0201,0.0188,0.0179,0.0197,0.0195,0.0192,0.0156,0.0148,0.0145,0.0124,0.0128,0.0127,0.0126,0.0125,0.0098,0.0098,0,0,0,0,0,0,0.0236,0.0227,0.0233,0.0231,0.0227,0.0204,0.0202,0.0209,0.0179,0.0175,0.0192,0.0191,0.0151,0.0147,0.0144,0.0151,0.0127,0.0125,0.0124,0.0098,0.0098,0.0098,0,0,0,0,0,0,0.0236,0.0237,0.0234,0.0228,0.0226,0.0205,0.0213,0.0209,0.0203,0.0176,0.0171,0.0191,0.0151,0.0146,0.0137,0.0148,0.0124,0.0123,0.0098,0.0098,0.0098,0.0156,0,0,0,0,0,0,0.0236,0.0237,0.0244,0.0229,0.0227,0.0232,0.0213,0.0208,0.0202,0.02,0.0174,0.0169,0.015,0.0139,0.0135,0.0146,0.0122,0.0097,0.0098,0.0098,0.0154,0.0158,0.0162,0,0,0,0,0,0.0236,0.0251,0.0245,0.0246,0.0238,0.0233,0.023,0.0212,0.0203,0.0205,0.0187,0.017,0.0139,0.0139,0.0134,0.0144,0.0097,0.0098,0.0098,0.0152,0.0157,0.0162,0,0,0,0,0,0,0.0247,0.025,0.0242,0.0257,0.0248,0.0229,0.0229,0.0217,0.0204,0.0201,0.0175,0.0169,0.0164,0.0145,0.0145,0.0136,0.0114,0.0114,0.0157,0.0162,0.0166,0.0184,0.0121,0,0,0,0,0,0.0254,0.0268,0.0259,0.0269,0.0268,0.0248,0.0243,0.0233,0.022,0.0214,0.0195,0.0175,0.0162,0.0155,0.0138,0.0136,0.0111,0.0138,0.0142,0.0145,0.0156,0.0124,0.0127,0.01,0.01,0.01,0,0,0.0259,0.0263,0.0269,0.0272,0.0263,0.0273,0.0245,0.0243,0.0253,0.0211,0.0216,0.0189,0.0163,0.016,0.0156,0.0147,0.0139,0.0146,0.015,0.0158,0.0125,0.0128,0.013,0.01,0.01,0.01,0,0,0.0281,0.0282,0.0302,0.0302,0.0298,0.0289,0.0292,0.0278,0.0273,0.0271,0.0244,0.0225,0.0204,0.0189,0.0179,0.0196,0.016,0.0187,0.0226,0.0195,0.0197,0.0199,0.0168,0.0166,0.0191,0.0191,0.0191,0,0.0286,0.0316,0.0304,0.0324,0.0332,0.0302,0.0325,0.0317,0.0301,0.0303,0.028,0.0247,0.022,0.0222,0.0225,0.0207,0.0182,0.0212,0.0201,0.0202,0.0203,0.0171,0.0168,0.0194,0.0194,0.0193,0.0193,0,0.0327,0.0349,0.0361,0.0382,0.0385,0.04,0.0391,0.0395,0.0379,0.0364,0.0356,0.0312,0.0295,0.0279,0.0257,0.0253,0.0231,0.0209,0.0192,0.0209,0.0174,0.017,0.0198,0.0197,0.0196,0.0196,0,0,0.0349,0.0384,0.0391,0.0415,0.0421,0.0432,0.0453,0.0463,0.0484,0.0445,0.0462,0.0417,0.0383,0.0369,0.0332,0.0302,0.0277,0.0263,0.026,0.0238,0.0207,0.0186,0.018,0.0252,0.0252,0.0252,0.0179,0,0.0387,0.0448,0.045,0.0501,0.0532,0.0522,0.0548,0.0549,0.0538,0.0544,0.049,0.0481,0.0421,0.0412,0.0373,0.0306,0.027,0.0298,0.0188,0.0185,0.017,0.0176,0.0201,0.0139,0.0176,0.0175,0.0174,0,0.0435,0.0472,0.0534,0.0581,0.0593,0.0613,0.0655,0.0675,0.067,0.066,0.063,0.058,0.0536,0.0478,0.0369,0.039,0.0306,0.0243,0.0239,0.02,0.0158,0.0127,0.013,0.0168,0.0168,0.0169,0.0169,0,0.0477,0.0533,0.0589,0.0605,0.0647,0.0673,0.0696,0.0709,0.0749,0.0732,0.0747,0.0667,0.0645,0.0528,0.0391,0.038,0.0264,0.0231,0.0132,0.0129,0.012,0.0117,0.015,0.015,0.0151,0.0151,0.0151,0,0.0528,0.0573,0.0614,0.0646,0.0722,0.0725,0.08,0.0811,0.0841,0.0891,0.081,0.0827,0.0656,0.0566,0.0423,0.0272,0.0285,0.0144,0.0112,0.014,0.0139,0.0141,0.0141,0.0148,0.0149,0.0149,0.015,0,0.0569,0.0595,0.0664,0.072,0.0746,0.0801,0.0886,0.0939,0.0952,0.1015,0.1014,0.0952,0.0834,0.0653,0.0467,0.0331,0.0175,0.0114,0.0157,0.0132,0.0051,0.0054,-0.0001,-0.0002,-0.0003,-0.0004,-0.0005,0,0.0596,0.0637,0.0725,0.0777,0.0804,0.0888,0.0955,0.0998,0.1061,0.1097,0.1136,0.1044,0.1002,0.0724,0.0461,0.0209,0.0172,0.0058,0.0038,0.0062,0.0036,0.0042,0.0046,0.0043,0.0043,0.0042,0.0042,0,0.0648,0.0677,0.0736,0.0846,0.0922,0.1025,0.1117,0.1189,0.1239,0.1292,0.1335,0.1302,0.1042,0.0798,0.0447,0.0274,0.0097,0.0044,0.006,0.0081,0.0098,0.0075,0.0079,0.004,0.004,0.004,0.0041,0.0041,0.0687,0.074,0.0818,0.0922,0.1019,0.1143,0.1233,0.1328,0.1445,0.1514,0.1479,0.1429,0.1143,0.0705,0.0403,0.008,0.0099,-0.0021,-0.0018,-0.0015,0.0007,0.0021,-0.0047,-0.0048,-0.0048,-0.0048,-0.0048,0,0.0738,0.0797,0.089,0.1014,0.1121,0.117,0.133,0.1417,0.1552,0.1599,0.1627,0.1352,0.1082,0.0746,0.0278,0.0003,-0.0018,-0.0095,-0.0055,-0.005,-0.0047,-0.0026,-0.0089,-0.009,-0.0091,-0.0092,0,0,0.0765,0.0855,0.0901,0.1074,0.1165,0.1316,0.1412,0.1537,0.1615,0.1668,0.1633,0.1563,0.1174,0.0822,0.0449,0.0181,0.0126,0.0122,0.0187,0.0285,0.0291,0.003,0.0071,0,0,0,0,0]}],[{"header":{"parameterUnit":"m.s-1","parameterCategory":2,"la1":30.2991,"la2":30.254,"lo1":-89.0895,"lo2":-89.0444,"dy":0.0017,"dx":0.0017,"nx":28,"ny":28,"refTime":"2024-02-07T03:00:00:Z","depth":"4","parameterNumber":2,"parameterNumberName":"U-component_of_CURRENTS"},"data":[0,0,0,0,0,0,0,0,0,0,0,0,0,0,0,0,0,0,0,0,0,0,0,0,0,0,0,0,0,0,0,0,0,0,0,0,0,0,0,0,0,0,0,0,0,0,0,0,0,0,0,0,0,0,0,0,0,0,0.1872,0.1873,0,0.1926,0.1927,0.1927,0.1977,0.1978,0.1979,0.1979,0.2047,0.2048,0.2049,0,0,0,0,0,0,0,0,0,0,0,0,0,0.1807,0.1808,0.1872,0.1873,0.1874,0.1926,0.1927,0.1927,0.1977,0.1978,0.1979,0.198,0.2046,0.2047,0.2049,0,0,0,0,0,0,0,0,0,0,0,0,0,0.1843,0.1808,0.1872,0.1907,0.191,0.1926,0.1927,0.1927,0.1977,0.1978,0.1979,0.198,0.2046,0.2047,0.2049,0.2034,0,0,0.2053,0.2054,0,0,0,0,0,0,0,0,0.1841,0.1845,0.1901,0.1904,0.1909,0.1948,0.1928,0.1964,0.1976,0.1949,0.1979,0.1981,0.2015,0.2019,0.2024,0.2037,0.204,0.2054,0.2055,0.2055,0.2056,0,0,0,0,0,0,0,0.1839,0.1843,0.1891,0.1901,0.1906,0.1918,0.1924,0.1935,0.1973,0.1952,0.1956,0.1965,0.2018,0.2022,0.2026,0.2041,0.2054,0.2055,0.2056,0.2056,0.2166,0.2168,0,0,0,0,0,0,0.1835,0.1841,0.189,0.1893,0.188,0.1918,0.1925,0.1932,0.1973,0.1981,0.1964,0.1967,0.2019,0.2024,0.2028,0.212,0.2055,0.2057,0.2057,0.2164,0.2167,0.2169,0,0,0,0,0,0,0.1834,0.1839,0.1887,0.187,0.1877,0.1918,0.1926,0.1933,0.1978,0.1983,0.1991,0.2007,0.202,0.2026,0.2077,0.2119,0.2057,0.2059,0.2162,0.2165,0.2168,0.2235,0,0,0,0,0,0,0.1831,0.1838,0.1863,0.187,0.1878,0.1921,0.1925,0.1933,0.1981,0.1987,0.2021,0.2027,0.2021,0.2075,0.2079,0.212,0.206,0.2159,0.2163,0.2167,0.223,0.224,0.2248,0,0,0,0,0,0.1829,0.1848,0.1863,0.1871,0.1904,0.1922,0.1928,0.1959,0.1982,0.2005,0.2036,0.2028,0.2102,0.2078,0.2082,0.2124,0.2158,0.2162,0.2167,0.2226,0.2238,0.2248,0,0,0,0,0,0,0.1833,0.1855,0.1872,0.1899,0.1923,0.1932,0.1963,0.1982,0.2024,0.2044,0.2049,0.2056,0.2118,0.2113,0.2086,0.2168,0.213,0.2136,0.2174,0.2185,0.2194,0.2196,0.2061,0,0,0,0,0,0.1845,0.187,0.1887,0.1915,0.193,0.1955,0.1977,0.1997,0.2024,0.2046,0.2072,0.2102,0.2131,0.2153,0.2173,0.2214,0.2212,0.2246,0.2255,0.2263,0.2269,0.2304,0.2317,0.2184,0.2184,0.2184,0,0,0.1855,0.1873,0.1888,0.1919,0.1943,0.1968,0.1972,0.2014,0.2049,0.2045,0.2116,0.2137,0.215,0.2201,0.2228,0.2207,0.2301,0.2268,0.2275,0.2276,0.231,0.2323,0.2335,0.2187,0.2186,0.2186,0,0,0.1872,0.1905,0.1927,0.195,0.1993,0.2006,0.2028,0.2062,0.2098,0.2152,0.2167,0.2216,0.2257,0.2276,0.2288,0.2359,0.2348,0.2374,0.2421,0.2456,0.2467,0.2477,0.2491,0.2501,0.2378,0.2378,0.2378,0,0.189,0.1916,0.1939,0.1965,0.1993,0.2028,0.2058,0.2093,0.2145,0.2178,0.2189,0.2275,0.229,0.2348,0.2378,0.2379,0.2392,0.2376,0.2467,0.2476,0.2485,0.2497,0.2507,0.2382,0.2381,0.2381,0.238,0,0.1908,0.1948,0.1966,0.2011,0.2042,0.2078,0.2118,0.2169,0.2217,0.2247,0.2332,0.2359,0.2409,0.2427,0.2426,0.2502,0.249,0.2474,0.2436,0.2502,0.2511,0.252,0.2387,0.2386,0.2384,0.2383,0,0,0.1893,0.1966,0.1976,0.2003,0.2074,0.2088,0.2164,0.2224,0.2276,0.234,0.2408,0.247,0.2498,0.2515,0.253,0.2564,0.2638,0.2556,0.2556,0.2563,0.2713,0.2535,0.2527,0.2646,0.2648,0.2649,0.2694,0,0.1906,0.1954,0.1997,0.2053,0.2077,0.2141,0.2201,0.2264,0.2331,0.2404,0.2458,0.2527,0.2528,0.2569,0.2607,0.2636,0.2668,0.2627,0.2654,0.2654,0.2482,0.2534,0.2656,0.2701,0.2703,0.2705,0.2706,0,0.1899,0.1935,0.1994,0.2067,0.2087,0.2135,0.2232,0.2294,0.2402,0.2458,0.2542,0.2587,0.2671,0.2654,0.2737,0.2717,0.2727,0.2735,0.2736,0.2551,0.2492,0.2622,0.2723,0.2721,0.272,0.2719,0.2718,0,0.1842,0.1925,0.1974,0.2,0.2093,0.2147,0.2209,0.2317,0.2388,0.2509,0.2573,0.266,0.273,0.2763,0.2799,0.2783,0.2868,0.2838,0.2681,0.2669,0.2787,0.2776,0.2887,0.2887,0.2887,0.2886,0.2886,0,0.1812,0.185,0.1957,0.1978,0.2049,0.2123,0.2222,0.2296,0.2425,0.2494,0.2607,0.2664,0.2767,0.2826,0.2829,0.2783,0.2895,0.2693,0.267,0.2814,0.2806,0.2793,0.2782,0.2888,0.2888,0.2887,0.2887,0,0.1737,0.1811,0.1869,0.1981,0.2027,0.2079,0.2236,0.2287,0.2428,0.2526,0.2574,0.271,0.2765,0.2835,0.2891,0.2807,0.2786,0.2741,0.2897,0.2881,0.2553,0.2545,0.2554,0.2548,0.2543,0.2539,0.2536,0,0.1698,0.1724,0.1862,0.1903,0.1967,0.2067,0.2127,0.2278,0.2333,0.2516,0.2535,0.2664,0.2723,0.2665,0.2743,0.2728,0.2696,0.2665,0.2596,0.2544,0.2521,0.2521,0.252,0.2528,0.2526,0.2525,0.2524,0,0.1625,0.1698,0.1749,0.184,0.1913,0.1983,0.2081,0.2115,0.2263,0.2415,0.2435,0.246,0.2517,0.2541,0.2561,0.2542,0.267,0.2612,0.2621,0.2556,0.2512,0.2494,0.2499,0.2506,0.2509,0.2511,0.2512,0,0.1581,0.1601,0.1685,0.1746,0.1833,0.1853,0.1929,0.1973,0.2055,0.2241,0.2237,0.2358,0.2485,0.2445,0.2455,0.2432,0.2383,0.2289,0.2315,0.2335,0.224,0.215,0.2016,0,0,0,0,0,0.1519,0.1523,0.1575,0.1625,0.1701,0.1751,0.1864,0.1936,0.2083,0.2037,0.2134,0.2164,0.2177,0.2245,0.2174,0.2354,0.2396,0.2259,0.2303,0.241,0.243,0.2338,0,0,0,0,0,0,0.1474,0.1521,0.1531,0.1507,0.1515,0.1577,0.1642,0.1742,0.1731,0.1888,0.1912,0.2025,0.208,0.2193,0.213,0.2148,0.2128,0.2341,0.2334,0.2399,0.2417,0.2433,0.2345,0,0,0,0,0]},{"header":{"parameterUnit":"m.s-1","parameterCategory":2,"la1":30.2991,"la2":30.254,"lo1":-89.0895,"lo2":-89.0444,"dy":0.0017,"dx":0.0017,"nx":28,"ny":28,"refTime":"2024-02-07T03:00:00:Z","depth":"4","parameterNumber":3,"parameterNumberName":"V-component_of_CURRENTS"},"data":[0,0,0,0,0,0,0,0,0,0,0,0,0,0,0,0,0,0,0,0,0,0,0,0,0,0,0,0,0,0,0,0,0,0,0,0,0,0,0,0,0,0,0,0,0,0,0,0,0,0,0,0,0,0,0,0,0,0,0.0215,0.0215,0,0.0194,0.0194,0.0194,0.0182,0.0182,0.0182,0.0182,0.0156,0.0155,0.0154,0,0,0,0,0,0,0,0,0,0,0,0,0,0.0204,0.0204,0.0215,0.0215,0.0215,0.0195,0.0194,0.0194,0.0182,0.0182,0.0182,0.0182,0.0156,0.0155,0.0154,0,0,0,0,0,0,0,0,0,0,0,0,0,0.0198,0.0204,0.0215,0.0207,0.0206,0.0195,0.0194,0.0194,0.0182,0.0182,0.0182,0.0182,0.0156,0.0155,0.0154,0.0148,0,0,0.0151,0.0151,0,0,0,0,0,0,0,0,0.0199,0.0199,0.0208,0.0207,0.0206,0.0191,0.0181,0.0178,0.0182,0.0191,0.0182,0.0182,0.0167,0.0165,0.0161,0.0147,0.0146,0.0151,0.015,0.015,0.015,0,0,0,0,0,0,0,0.0199,0.0199,0.0207,0.0208,0.0207,0.019,0.0189,0.018,0.0179,0.019,0.0189,0.0187,0.0167,0.0162,0.016,0.0145,0.0151,0.015,0.0149,0.0149,0.0131,0.0131,0,0,0,0,0,0,0.0205,0.02,0.0207,0.0206,0.0203,0.019,0.019,0.0196,0.0179,0.0177,0.0187,0.0187,0.0164,0.0162,0.0159,0.0169,0.015,0.0149,0.0148,0.0131,0.0131,0.0131,0,0,0,0,0,0,0.0205,0.0206,0.0208,0.0202,0.0201,0.0191,0.0197,0.0195,0.0195,0.0177,0.0175,0.019,0.0164,0.0161,0.0158,0.0167,0.0148,0.0147,0.0131,0.0131,0.0131,0.0177,0,0,0,0,0,0,0.0204,0.0206,0.0213,0.0203,0.0202,0.0209,0.0197,0.0195,0.0194,0.0193,0.0179,0.0176,0.0163,0.016,0.0157,0.0166,0.0147,0.0131,0.0131,0.0131,0.0175,0.0179,0.0182,0,0,0,0,0,0.0204,0.0216,0.0214,0.0215,0.0212,0.0209,0.0207,0.0199,0.0195,0.0198,0.0189,0.0177,0.0159,0.0159,0.0156,0.0164,0.0131,0.0131,0.0131,0.0174,0.0178,0.0182,0,0,0,0,0,0,0.0213,0.0216,0.0213,0.0225,0.022,0.0207,0.021,0.0203,0.0198,0.0199,0.0181,0.0178,0.0178,0.0163,0.0164,0.0159,0.0142,0.0142,0.0175,0.0179,0.0182,0.0196,0.0146,0,0,0,0,0,0.0219,0.0231,0.0225,0.0234,0.0234,0.0223,0.0221,0.0216,0.0208,0.0206,0.0196,0.0184,0.0175,0.0172,0.0161,0.0161,0.0138,0.0162,0.0165,0.0168,0.0176,0.0146,0.0148,0.0132,0.0132,0.0132,0,0,0.0223,0.0227,0.0233,0.0237,0.0232,0.0241,0.0222,0.0223,0.0233,0.0204,0.0214,0.0195,0.0177,0.0177,0.0175,0.0168,0.0159,0.0169,0.0171,0.0178,0.0147,0.0148,0.015,0.0133,0.0133,0.0133,0,0,0.024,0.0243,0.0259,0.0261,0.0261,0.0255,0.0258,0.0251,0.025,0.0253,0.0235,0.0223,0.0212,0.02,0.0193,0.0206,0.0176,0.0201,0.0231,0.0202,0.0203,0.0204,0.0172,0.017,0.0203,0.0204,0.0204,0,0.0245,0.0268,0.0261,0.0277,0.0286,0.0266,0.0285,0.0281,0.0273,0.0277,0.0263,0.0243,0.0223,0.0225,0.0228,0.0215,0.0192,0.022,0.0207,0.0207,0.0207,0.0175,0.0171,0.0206,0.0206,0.0205,0.0205,0,0.0274,0.0294,0.0303,0.0322,0.0327,0.034,0.0336,0.0343,0.0335,0.0325,0.0323,0.0292,0.0282,0.0269,0.0254,0.0248,0.023,0.0214,0.0199,0.0211,0.0176,0.0172,0.0209,0.0208,0.0208,0.0207,0,0,0.0288,0.0319,0.0325,0.0347,0.0356,0.0366,0.0385,0.0396,0.0413,0.0389,0.0403,0.0373,0.0348,0.0338,0.0311,0.0284,0.0258,0.0254,0.0251,0.0228,0.0191,0.0173,0.0166,0.0239,0.0239,0.0239,0.0166,0,0.0316,0.0363,0.0369,0.0413,0.0437,0.0436,0.0458,0.0463,0.0457,0.0464,0.0424,0.0421,0.0377,0.0374,0.0339,0.0283,0.025,0.0279,0.0179,0.0176,0.0162,0.0162,0.0238,0.0162,0.0161,0.0161,0.016,0,0.0348,0.0379,0.0429,0.0473,0.0484,0.0505,0.0543,0.0562,0.056,0.0555,0.0535,0.0498,0.0463,0.0421,0.0324,0.0346,0.0275,0.0222,0.0217,0.0183,0.015,0.0147,0.0152,0.0153,0.0153,0.0154,0.0154,0,0.0373,0.0423,0.047,0.0485,0.0526,0.0553,0.0577,0.059,0.0623,0.0614,0.0625,0.0563,0.0545,0.0449,0.0334,0.033,0.022,0.0199,0.0113,0.011,0.0129,0.0129,0.0127,0.0127,0.0127,0.0127,0.0127,0,0.0405,0.0444,0.0489,0.0516,0.0582,0.0592,0.0657,0.0671,0.0698,0.0734,0.0677,0.0682,0.0552,0.0471,0.0355,0.0222,0.0232,0.0119,0.0092,0.0149,0.0152,0.0125,0.0126,0.0124,0.0125,0.0126,0.0126,0,0.0424,0.0453,0.0514,0.057,0.0598,0.0646,0.0728,0.077,0.0785,0.0832,0.0834,0.0776,0.0667,0.0524,0.0365,0.026,0.0128,0.0076,0.0149,0.0126,0.0032,0.0036,-0.0023,-0.0024,-0.0025,-0.0026,-0.0027,0,0.0438,0.0472,0.0559,0.0606,0.0636,0.0714,0.0772,0.0816,0.0862,0.0886,0.0908,0.0826,0.0761,0.0529,0.037,0.0143,0.0106,0.003,0.0027,0.0038,0.0017,0.0023,0.0028,-0.0028,-0.0029,-0.0029,-0.0029,0,0.0463,0.0497,0.0548,0.0647,0.0717,0.0806,0.0885,0.0927,0.0972,0.0986,0.0963,0.0844,0.0722,0.0534,0.0355,0.0192,0.0076,0.0018,0.0019,0.0016,0.0031,0.0012,0.0018,-0.0033,-0.0032,-0.0032,-0.0032,0,0.0485,0.0525,0.0596,0.0683,0.0778,0.0866,0.091,0.0958,0.1006,0.1018,0.1008,0.0874,0.0799,0.0559,0.0398,0.0232,0.0185,0.0119,0.0114,0.0116,0.0172,0.0212,0.0183,0,0,0,0,0,0.0503,0.0549,0.0627,0.0723,0.0816,0.0874,0.0972,0.1005,0.1045,0.1032,0.1022,0.0903,0.0669,0.0579,0.0409,0.0369,0.0151,0.0162,0.0071,-0.0053,-0.0049,-0.0009,0,0,0,0,0,0,0.0514,0.0585,0.0624,0.074,0.0808,0.0915,0.098,0.1007,0.1004,0.1012,0.0897,0.0842,0.0623,0.076,0.0399,0.0352,0.0266,0.0059,0.0055,-0.0055,-0.0052,-0.0048,-0.0006,0,0,0,0,0]}]]